This demonstration page uses our WeatherBlox Daily Observations layout. Learn more.

Left ArrowRight Arrow

Hourly Observations for May 8, 2018

Temp ( °F °C ) Dew Point ( °F °C ) Humidity (%) Winds ( mph kmh ) Pressure ( in mb ) Visibility ( mi km ) Precip ( " mm )
12:53 am 00:53 Clear 68 20 50 10 53 53 SSE 12 19 29.88 1012 10 16 0.00 0.00
1:53 am 01:53 Clear 68 20 50 10 53 53 SSE 9 15 29.86 1011 10 16 0.00 0.00
2:53 am 02:53 Clear 65 18.3 50 10 59 59 SE 10 17 29.84 1011 10 16 0.00 0.00
3:53 am 03:53 Clear 63 17.2 50 10 63 63 SSE 8 13 29.83 1010 10 16 0.00 0.00
4:53 am 04:53 Clear 61 16.1 51 10.6 70 70 SSE 10 17 29.81 1010 10 16 0.00 0.00
5:53 am 05:53 Clear 59 15 51 10.6 75 75 SE 8 13 29.80 1009 10 16 0.00 0.00
6:53 am 06:53 Sunny 61 16.1 52 11.1 72 72 SSE 7 11 29.80 1009 10 16 0.00 0.00
7:53 am 07:53 Sunny 62 16.7 53 11.7 73 73 SSE 7 11 29.81 1010 10 16 0.00 0.00
8:53 am 08:53 Sunny 65 18.3 55 12.8 70 70 SE 7 11 29.81 1009 10 16 0.00 0.00
9:53 am 09:53 Sunny 71 21.7 56 13.3 59 59 S 5 7 29.80 1009 10 16 0.00 0.00
10:53 am 10:53 Sunny 74 23.3 57 13.9 56 56 Calm 29.79 1009 10 16 0.00 0.00
11:53 am 11:53 Sunny 75 23.9 56 13.3 52 52 NNE 9 15 29.80 1009 10 16 0.00 0.00
12:53 pm 12:53 Sunny 76 24.4 57 13.9 52 52 NE 8 13 29.79 1009 10 16 0.00 0.00
1:53 pm 13:53 Sunny 79 26.1 57 13.9 47 47 undefined N/A 29.79 1009 10 16 0.00 0.00
2:53 pm 14:53 Sunny 78 25.6 57 13.9 48 48 N 12 19 29.80 1009 10 16 0.00 0.00
3:53 pm 15:53 Sunny 80 26.7 57 13.9 45 45 undefined N/A 29.79 1009 10 16 0.00 0.00
4:53 pm 16:53 Mostly Sunny 81 27.2 56 13.3 42 42 NNW 18 30 29.80 1009 10 16 0.00 0.00
5:53 pm 17:53 Sunny 79 26.1 55 12.8 44 44 NNW 23 37 29.80 1009 10 16 0.00 0.00
6:53 pm 18:53 Sunny 78 25.6 53 11.7 42 42 N 16 26 29.80 1009 10 16 0.00 0.00
7:53 pm 19:53 Sunny 75 23.9 54 12.2 48 48 NNE 13 20 29.82 1010 10 16 0.00 0.00
8:53 pm 20:53 Clear 70 21.1 53 11.7 55 55 NNE 5 7 29.83 1010 10 16 0.00 0.00
9:53 pm 21:53 Clear 67 19.4 53 11.7 61 61 Calm 29.82 1010 10 16 0.00 0.00
10:53 pm 22:53 Clear 63 17.2 52 11.1 68 68 W 5 7 29.83 1010 10 16 0.00 0.00

Powered by AerisWeather